www.pogodaiklimat.ru

Погода и климат >> Архив погоды >> Россия >> Якутия >> Чумпурук


АРХИВ ПОГОДЫ в Чумпуруке

Время (UTC), дата Ветер
(напр.,м/с)
 
Видим.   Явления Облачность Т
(С)
Тd
(С)
f
(%)
Тe
(С)
Тes
(С)
Комфортность P
(гПа)
Po
(гПа)
Тmin
(С)
Tmax
(С)
R
(мм)
R24
(мм)
S
(см)
00 18.03 З 2 50 км 3/0
[Cc]
-25.4 -27.2 85 -32 -31 опасность
обморожения
1022.2 1002.8 -26.0 34
06 18.03 З 2 50 км ясно -14.5 -20.6 60 -19 -16 1020.9 1002.3
12 18.03 СЗ 1 50 км ясно -23.5 -27.5 70 -27 -27 1022.1 1002.8 -14.0
18 18.03 З 2 50 км 3/0
[]
-29.0 -30.7 85 -36 -36 опасность
обморожения
1023.3 1003.5
00 19.03 З 2 50 км ясно -32.2 -34.6 79 -40 -39 опасность
обморожения
1025.0 1004.9 -32.6 34
06 19.03 З 1 50 км ясно -13.9 -23.3 45 -16 -12 1023.0 1004.5
12 19.03 З 1 50 км ясно -24.9 -29.7 64 -28 -28 1024.3 1004.9 -13.0
18 19.03 З 1 50 км ясно -31.0 -33.4 79 -35 -35 опасность
обморожения
1025.0 1005.1
00 20.03 З 2 50 км ясно -34.4 -36.8 79 -43 -42 опасность
обморожения
1026.0 1005.7 -34.7 34
06 20.03 штиль 0 50 км ясно -10.9 -20.5 45 -11 -6 1022.9 1004.5
12 20.03 штиль 0 50 км ясно -24.8 -28.7 70 -25 -25 1024.4 1005.0 -10.5
18 20.03 З 1 50 км ясно -32.0 -35.0 75 -36 -36 опасность
обморожения
1025.0 1004.9
00 21.03 З 1 50 км ясно -32.2 -35.3 74 -37 -35 опасность
обморожения
1025.5 1005.4 -32.6 34
06 21.03 ЮВ 1 50 км 3/0
[]
-7.0 -19.2 37 -9 -5 1022.4 1004.3
12 21.03 штиль 0 50 км ясно -18.7 -23.7 65 -19 -19 1022.3 1003.3 -6.3
18 21.03 штиль 0 50 км 3/0
[Ci fib]
-29.0 -31.4 80 -29 -29 1020.3 1000.6
00 22.03 штиль 0 50 км 10/0
[Ac trans Cs]
-21.1 -23.0 85 -21 -20 1012.9 994.0 -30.0 34
06 22.03 ЮВ 3 10 км слаб. снег {метель} 10/0
[Cs]
-7.0 -9.1 85 -13 -10 1003.9 986.1
12 22.03 Ю 1 20 км слаб. снег {метель} 10/0
[Ac trans Cs]
-5.8 -6.5 95 -8 -8 999.8 982.3 -5.0 2
18 22.03 Ю 1 50 км {снег} 10/0
[Cs]
-17.5 -18.7 90 -20 -20 997.0 978.6
00 23.03 штиль 0 20 км слаб. снег 10/0
[Cs]
-13.5 -14.8 90 -14 -12 994.2 976.2 -17.9 0.6 36
06 23.03 С 5
{10}
20 км слаб. снег {метель} 10/0
[Cs]
-8.7 -11.6 79 -16 -15 996.6 978.8
12 23.03 С 6-10
{12}
10 км слаб. снег {метель} 10/0
[Cs]
-14.3 -17.0 80 -24 -24 1002.7 984.4 -8.0 2
18 23.03 С 6-10
{12}
20 км слаб. снег {метель} 10/0
[Cs]
-18.1 -21.4 75 -29 -29 1007.7 989.0
00 24.03 СЗ 6 20 км слаб. снег {метель} 10/0
[Cs]
-20.5 -23.8 75 -32 -31 опасность
обморожения
1012.6 993.7 -20.9 0.8 33
06 24.03 С 4 50 км позёмок {снег} 10/0
[Cs]
-15.1 -22.1 55 -23 -21 1015.2 996.7
12 24.03 С 1 50 км {метель} 3/0
[Ci fib]
-18.1 -24.0 60 -21 -21 1019.2 1000.3 -14.5 0.0
18 24.03 С 3 50 км ясно -27.6 -29.3 85 -37 -37 опасность
обморожения
1021.9 1002.4

 

Местоположение метеостанции Чумпурук (Якутия, Россия): широта 64.23 долгота 116.90 высота над уровнем моря 139 м.

В архиве по умолчанию представлена погода в Чумпуруке за последнюю неделю. Архивные данные за месяц целиком и за предыдущие месяцы, начиная с января 2011 года, Вы можете получить, выбрав интересующий диапазон дат из раскрывающегося списка и нажав кнопку "Ввод!".


*Определитесь, кто Вы:
робот инопланетянин человек

Внимание! Время в таблицах - всемирное. Для получения местного времени необходимо прибавить поправку, которая равна 9 ч.

Смотрите также архив погоды в соседних городах и на ближайших метеорологических станциях:

Погода в Нюрбе (Якутия, Россия) (126 км)
Погода в Верхневилюйске (Якутия, Россия) (184 км)
Погода в Эйке (Якутия, Россия) (202 км)
Погода в Хабардино (Якутия, Россия) (215 км)
Погода в Крестяхе (Якутия, Россия) (222 км)
Погода в Сунтаре (Якутия, Россия) (232 км)
Погода в Вилюйске (Якутия, Россия) (235 км)
Погода в Мирном (Якутия, Россия) (244 км)
Погода в Шелагонцах (Якутия, Россия) (257 км)
Погода в Чернышевском (Якутия, Россия) (259 км)

Пояснения к столбцам:

Ветер - указаны скорость ветра в м/с - средняя за 10 мин, порывы в срок и между сроками (в фигурных скобках) и направление, откуда дует ветер: С - северный, СВ - северо-восточный, В - восточный, ЮВ - юго-восточный, Ю - южный, ЮЗ - юго-западный, З - западный, СЗ - северо-западный.
Видимость - горизонтальная дальность видимости в метрах или километрах. При видимости от 1 до 10 км при отсутствии осадков обычно наблюдается дымка, при ухудшении видимости до 1 км и менее - туман. В сухую погоду видимость может ухудшаться дымом, пылью или мглою.
Явления - указаны атмосферные явления, наблюдавшиеся в срок или в последний час перед сроком; фигурными скобками обозначены явления, наблюдавшиеся между сроками (за 1-3 часа до срока); квадратными скобками обозначены град или гололедные отложения с указанием их диаметра в мм.
Облачность - указаны через наклонную черту общая и нижняя облачность в баллах и высота нижней границы облаков в метрах; квадратными скобками обозначены формы облаков: Ci - перистые, Cs - перисто-слоистые, Cc - перисто-кучевые, Ac - высококучевые, As - высокослоистые, Sc - слоисто-кучевые, Ns - слоисто-дождевые, Cu - кучевые, Cb - кучево-дождевые. Подробнее классификацию облаков см. в Атласе облаков (PDF).
T - Температура воздуха - температура, измеренная на высоте 2 м над землей.
Td - Температура точки росы - температура, при понижении до которой содержащийся в воздухе водяной пар достигнет насыщения.
f - Относительная влажность воздуха - влажноcть воздуха, измеренная на высоте 2 м над землей.
Te - Эффективная температура - температура, которую ощущает одетый по сезону человек в тени. Характеристика душности погоды. При расчете учитывается влияние влажности воздуха и скорости ветра на теплоощущения человека.
Tes - Эффективная температура на солнце - температура, которую ощущает человек, с поправкой на солнечный нагрев. Характеристика знойности погоды. Зависит от высоты солнца над горизонтом, облачности и скорости ветра. Ночью, в пасмурную погоду, а также при ветре 12 м/с и более поправка равна нулю.
P - Атмосферное давление - приведенное к уровню моря атмосферное давление.
Po - Атмосферное давление - измеренное на уровне метеостанции атмосферное давление.
Tmin - Минимальная температура - минимум температуры воздуха на высоте 2 м над землей.
Tmax - Максимальная температура - максимум температуры воздуха на высоте 2 м над землей.
R - Количество осадков - Количество выпавших осадков за период времени, мм. При наведении курсора мыши на число - период времени, за который выпало указанное количество осадков.
R24 - Количество осадков - Количество выпавших осадков за 24 часа, мм.
S - Снежный покров - Высота снежного покрова, см. При наведении курсора мыши на число - состояние снежного покрова и степень покрытия местности в баллах.